• In France
  • List of Countries
  • For 7 days
  • Water Temperature
  • Satellite Maps
  • Weather Map
  • Weather Widgets
  • user-avatar
    Login

    Hourly Weather Byala

    Today, 23 September, Saturday

    Time Temperature Precipitation Wind Pressure Humidity
    00:00 +13°C° 0 mm 6 mps 752 mmHg 73%
    01:00 +11°C° 0 mm 6 mps 752 mmHg 75%
    02:00 +12°C° 0 mm 5 mps 752 mmHg 78%
    03:00 +10°C° 0 mm 5 mps 752 mmHg 79%
    04:00 +10°C° 0 mm 5 mps 753 mmHg 80%
    05:00 +10°C° 0 mm 5 mps 753 mmHg 81%
    06:00 +12°C° 0 mm 5 mps 753 mmHg 77%
    07:00 +13°C° 0 mm 6 mps 753 mmHg 72%
    08:00 +14°C° 0 mm 6 mps 753 mmHg 67%
    09:00 +16°C° 0 mm 5 mps 753 mmHg 59%
    10:00 +19°C° 0 mm 5 mps 754 mmHg 51%
    11:00 +21°C° 0 mm 5 mps 754 mmHg 43%
    12:00 +22°C° 0 mm 4 mps 754 mmHg 41%
    13:00 +22°C° 0 mm 3 mps 754 mmHg 39%
    14:00 +24°C° 0 mm 3 mps 754 mmHg 37%
    15:00 +24°C° 0 mm 3 mps 754 mmHg 37%
    16:00 +22°C° 0 mm 3 mps 754 mmHg 38%
    17:00 +23°C° 0 mm 2 mps 753 mmHg 38%
    18:00 +21°C° 0 mm 3 mps 754 mmHg 41%
    19:00 +19°C° 0 mm 3 mps 754 mmHg 43%
    20:00 +18°C° 0 mm 3 mps 754 mmHg 46%
    21:00 +17°C° 0 mm 3 mps 754 mmHg 47%
    22:00 +16°C° 0 mm 3 mps 754 mmHg 49%
    23:00 +16°C° 0 mm 3 mps 754 mmHg 51%

    Tomorrow, 24 September, Sunday

    Time Temperature Precipitation Wind Pressure Humidity
    00:00 +14°C° 0 mm 3 mps 754 mmHg 52%
    01:00 +14°C° 0 mm 3 mps 754 mmHg 53%
    02:00 +14°C° 0 mm 2 mps 754 mmHg 53%
    03:00 +14°C° 0 mm 2 mps 754 mmHg 55%
    04:00 +14°C° 0 mm 2 mps 754 mmHg 56%
    05:00 +14°C° 0 mm 2 mps 754 mmHg 57%
    06:00 +15°C° 0 mm 2 mps 754 mmHg 52%
    07:00 +17°C° 0 mm 2 mps 755 mmHg 48%
    08:00 +18°C° 0 mm 2 mps 755 mmHg 43%
    09:00 +20°C° 0 mm 2 mps 755 mmHg 39%
    10:00 +23°C° 0 mm 2 mps 755 mmHg 35%
    11:00 +25°C° 0 mm 2 mps 755 mmHg 31%
    12:00 +26°C° 0 mm 2 mps 755 mmHg 30%
    13:00 +26°C° 0 mm 2 mps 755 mmHg 29%
    14:00 +27°C° 0 mm 3 mps 754 mmHg 28%
    15:00 +27°C° 0 mm 3 mps 754 mmHg 29%
    16:00 +26°C° 0 mm 4 mps 754 mmHg 31%
    17:00 +26°C° 0 mm 4 mps 754 mmHg 33%
    18:00 +22°C° 0 mm 4 mps 754 mmHg 41%
    19:00 +20°C° 0 mm 3 mps 755 mmHg 49%
    20:00 +18°C° 0 mm 3 mps 755 mmHg 57%
    21:00 +18°C° 0 mm 3 mps 755 mmHg 60%
    22:00 +17°C° 0 mm 2 mps 755 mmHg 64%
    23:00 +17°C° 0 mm 2 mps 755 mmHg 67%

    Day after tomorrow, 25 September, Monday

    Time Temperature Precipitation Wind Pressure Humidity
    00:00 +18°C° 0 mm 1 mps 755 mmHg 69%
    01:00 +16°C° 0 mm 1 mps 755 mmHg 71%
    02:00 +16°C° 0 mm 1 mps 755 mmHg 73%
    03:00 +16°C° 0 mm 1 mps 755 mmHg 74%
    04:00 +16°C° 0 mm 2 mps 755 mmHg 75%
    05:00 +16°C° 0 mm 2 mps 755 mmHg 76%
    06:00 +17°C° 0 mm 3 mps 755 mmHg 71%
    07:00 +18°C° 0 mm 3 mps 755 mmHg 67%
    08:00 +20°C° 0 mm 4 mps 755 mmHg 63%
    09:00 +21°C° 0 mm 4 mps 755 mmHg 56%
    10:00 +23°C° 0 mm 5 mps 755 mmHg 50%
    11:00 +24°C° 0 mm 6 mps 755 mmHg 43%
    12:00 +26°C° 0 mm 6 mps 755 mmHg 42%
    13:00 +26°C° 0 mm 6 mps 754 mmHg 40%
    14:00 +26°C° 0 mm 7 mps 754 mmHg 39%
    15:00 +24°C° 0 mm 7 mps 754 mmHg 42%
    16:00 +24°C° 0 mm 7 mps 754 mmHg 45%
    17:00 +23°C° 0 mm 7 mps 754 mmHg 48%
    18:00 +21°C° 0 mm 7 mps 754 mmHg 58%
    19:00 +20°C° 0 mm 6 mps 754 mmHg 68%
    20:00 +17°C° 0 mm 6 mps 754 mmHg 77%
    21:00 +17°C° 0 mm 6 mps 754 mmHg 81%
    22:00 +16°C° 0 mm 5 mps 754 mmHg 85%
    23:00 +16°C° 0 mm 5 mps 754 mmHg 89%

    26 September, Tuesday

    Time Temperature Precipitation Wind Pressure Humidity
    00:00 +15°C° 0 mm 5 mps 753 mmHg 90%
    01:00 +15°C° 0 mm 5 mps 753 mmHg 90%
    02:00 +15°C° 0 mm 5 mps 753 mmHg 90%
    03:00 +15°C° 0 mm 5 mps 753 mmHg 90%
    04:00 +14°C° 0 mm 5 mps 753 mmHg 91%
    05:00 +14°C° 0 mm 5 mps 753 mmHg 91%
    06:00 +15°C° 0 mm 5 mps 753 mmHg 85%
    07:00 +16°C° 0 mm 5 mps 753 mmHg 80%
    08:00 +19°C° 0 mm 5 mps 753 mmHg 75%
    09:00 +21°C° 0.1 mm 5 mps 753 mmHg 67%
    10:00 +23°C° 0.1 mm 6 mps 753 mmHg 60%
    11:00 +26°C° 0.1 mm 6 mps 753 mmHg 52%
    12:00 +26°C° 0.8 mm 6 mps 753 mmHg 55%
    13:00 +24°C° 0.8 mm 7 mps 753 mmHg 58%
    14:00 +24°C° 0.8 mm 7 mps 753 mmHg 60%
    15:00 +23°C° 1.1 mm 7 mps 753 mmHg 64%
    16:00 +22°C° 1.1 mm 7 mps 753 mmHg 68%
    17:00 +20°C° 1.1 mm 7 mps 753 mmHg 72%
    18:00 +20°C° 0 mm 7 mps 753 mmHg 74%
    19:00 +18°C° 0 mm 7 mps 754 mmHg 75%
    20:00 +17°C° 0 mm 7 mps 754 mmHg 76%
    21:00 +17°C° 0 mm 6 mps 754 mmHg 77%
    22:00 +16°C° 0 mm 6 mps 754 mmHg 78%
    23:00 +16°C° 0 mm 5 mps 754 mmHg 78%

    27 September, Wednesday

    Time Temperature Precipitation Wind Pressure Humidity
    00:00 +15°C° 0 mm 5 mps 754 mmHg 78%
    01:00 +15°C° 0 mm 5 mps 754 mmHg 78%
    02:00 +15°C° 0 mm 5 mps 754 mmHg 78%
    03:00 +14°C° 0 mm 5 mps 754 mmHg 77%
    04:00 +14°C° 0 mm 5 mps 754 mmHg 76%
    05:00 +14°C° 0 mm 5 mps 754 mmHg 75%
    06:00 +15°C° 0 mm 5 mps 755 mmHg 72%
    07:00 +16°C° 0 mm 6 mps 755 mmHg 69%
    08:00 +16°C° 0 mm 6 mps 755 mmHg 66%
    09:00 +19°C° 0.1 mm 6 mps 756 mmHg 63%
    10:00 +20°C° 0.1 mm 6 mps 756 mmHg 61%
    11:00 +21°C° 0.1 mm 7 mps 756 mmHg 58%
    12:00 +21°C° 0.1 mm 7 mps 756 mmHg 58%
    13:00 +21°C° 0.1 mm 7 mps 756 mmHg 58%
    14:00 +21°C° 0.1 mm 8 mps 756 mmHg 57%
    15:00 +21°C° 0 mm 8 mps 756 mmHg 58%
    16:00 +20°C° 0 mm 8 mps 756 mmHg 60%
    17:00 +20°C° 0 mm 8 mps 757 mmHg 61%
    18:00 +18°C° 0 mm 8 mps 757 mmHg 65%
    19:00 +17°C° 0 mm 7 mps 757 mmHg 70%
    20:00 +16°C° 0 mm 7 mps 757 mmHg 74%
    21:00 +16°C° 0 mm 7 mps 757 mmHg 76%
    22:00 +15°C° 0 mm 7 mps 757 mmHg 77%
    23:00 +15°C° 0 mm 7 mps 757 mmHg 79%

    28 September, Thursday

    Time Temperature Precipitation Wind Pressure Humidity
    00:00 +15°C° 0 mm 7 mps 757 mmHg 79%
    01:00 +14°C° 0 mm 7 mps 757 mmHg 79%
    02:00 +14°C° 0 mm 7 mps 757 mmHg 79%
    03:00 +12°C° 0 mm 7 mps 757 mmHg 79%
    04:00 +12°C° 0 mm 7 mps 757 mmHg 79%
    05:00 +12°C° 0 mm 7 mps 757 mmHg 79%
    06:00 +14°C° 0 mm 7 mps 758 mmHg 74%
    07:00 +15°C° 0 mm 8 mps 758 mmHg 70%
    08:00 +16°C° 0 mm 8 mps 758 mmHg 65%
    09:00 +17°C° 0.1 mm 8 mps 758 mmHg 62%
    10:00 +18°C° 0.1 mm 9 mps 758 mmHg 59%
    11:00 +19°C° 0.1 mm 9 mps 758 mmHg 55%
    12:00 +19°C° 0.1 mm 9 mps 758 mmHg 54%
    13:00 +19°C° 0.1 mm 10 mps 758 mmHg 53%
    14:00 +19°C° 0.1 mm 10 mps 758 mmHg 52%
    15:00 +18°C° 0 mm 10 mps 758 mmHg 55%
    16:00 +17°C° 0 mm 9 mps 758 mmHg 57%
    17:00 +17°C° 0 mm 9 mps 758 mmHg 60%
    18:00 +16°C° 0 mm 9 mps 758 mmHg 64%
    19:00 +15°C° 0 mm 8 mps 758 mmHg 69%
    20:00 +13°C° 0 mm 8 mps 759 mmHg 74%
    21:00 +12°C° 0.1 mm 8 mps 759 mmHg 76%
    22:00 +12°C° 0.1 mm 7 mps 759 mmHg 77%
    23:00 +12°C° 0.1 mm 7 mps 758 mmHg 78%
    Show more